Regional Weather Roundup
Issued by NWS Boston, MA

Home | Current Version | Previous Version | Text Only | Print | Product List | Glossary On
Versions: 1 2 3 4 5 6 7 8 9 10 11 12 13 14 15 16 17 18 19 20 21 22 23 24 25 26 27
000
ASUS41 KBOX 100810
RWRBOX

REGIONAL WEATHER ROUNDUP
NATIONAL WEATHER SERVICE TAUNTON MA
300 AM EST SAT DEC 10 2016

NOTE:  "FAIR" INDICATES FEW OR NO CLOUDS BELOW 12,000 FEET WITH NO
SIGNIFICANT WEATHER AND/OR OBSTRUCTIONS TO VISIBILITY.

MAZALL-100900-
EASTERN MASSACHUSETTS

CITY           SKY/WX    TMP DP  RH WIND       PRES   REMARKS
BOSTON         CLEAR     23   7  50 W18       30.22S WCI   9
BEVERLY        CLEAR     22   7  52 NW7       30.19R WCI  13
LAWRENCE       CLEAR     22   7  52 W8        30.22R WCI  12
BEDFORD        CLEAR     21   6  52 W12       30.21R WCI   9
BLUE HILL        N/A     18   9  68 NW10      30.17R WCI   6
NORWOOD        CLEAR     23   6  48 NW8       30.22R WCI  14
MARSHFIELD     CLEAR     25   7  46 NW9G20    30.21R WCI  15
PLYMOUTH       CLEAR     22   6  50 W7        30.21R WCI  13
TAUNTON        CLEAR     23   5  46 VRB7      30.22R WCI  15
NEW BEDFORD    CLEAR     23   7  50 NW5       30.22R WCI  17
$$

MAZALL-100900-
CAPE COD AND THE ISLANDS

CITY           SKY/WX    TMP DP  RH WIND       PRES   REMARKS
FALMOUTH         N/A     23   7  50 MISG      30.18S
HYANNIS        PTCLDY    24   6  46 W8        30.19R WCI  15
CHATHAM        CLOUDY    28  12  51 NW8G21    30.19R WCI  20
PROVINCETOWN   MOCLDY    27  13  55 NW20G31   30.19R WCI  13
NANTUCKET      CLEAR     27  10  49 NW16G24   30.20R WCI  15
MARTHAS VNYRD  CLEAR     26   9  48 NW13      30.22R WCI  15
$$

MAZALL-100900-
CENTRAL AND WESTERN MASSACHUSETTS

CITY           SKY/WX    TMP DP  RH WIND       PRES   REMARKS
WORCESTER      CLEAR     17   3  54 W7        30.17R WCI   8
FITCHBURG      CLEAR     20   6  55 W6        30.22R WCI  12
ORANGE         CLEAR     19   5  54 NW9       30.22R WCI   8
SPRINGFIELD    CLEAR     20   7  56 CALM      30.23R
WESTFIELD      CLEAR     20  11  68 NW6       30.25R WCI  12
NORTH ADAMS    CLEAR     18   7  62 W10       30.23R WCI   6
PITTSFIELD     CLEAR     16   9  74 W5        30.19R WCI   9
$$

RIZALL-100900-
RHODE ISLAND

CITY           SKY/WX    TMP DP  RH WIND       PRES   REMARKS
PROVIDENCE     CLEAR     22   7  52 NW5       30.24R WCI  16
NEWPORT        CLEAR     25   9  50 NW12      30.23R WCI  14
BLOCK ISLAND   CLEAR     26  14  60 NW14      30.26R WCI  14
SMITHFIELD     CLEAR     20   7  57 NW5       30.21R WCI  13
WESTERLY       CLEAR     25   8  48 VRB5      30.26R WCI  19
$$

CTZALL-100900-
CONNECTICUT

CITY           SKY/WX    TMP DP  RH WIND       PRES   REMARKS
BRADLEY INTL   CLEAR     20   9  62 NW8       30.26R WCI  10
HARTFORD       CLEAR     24  11  57 W5        30.29R WCI  18
BRIDGEPORT     CLEAR     26  14  60 W7        30.31R WCI  18
DANBURY        CLEAR     22  13  68 W5        30.29R WCI  16
GROTON         CLEAR     27  10  49 NW14      30.27R WCI  16
NEW HAVEN      CLEAR     26  14  60 VRB5      30.30R WCI  20
CHESTER        FAIR      23   9  54 NW6       30.25R WCI  16
MERIDEN        CLEAR     25   8  48 NW3       30.29R
WILLIMANTIC    CLEAR     25  10  53 NW6       30.25R WCI  18
OXFORD         CLEAR     21   7  53 NW3       30.25R
$$

MEZ002-015-021-024-NHZ003-005-008-011-012-014-VTZ005-008-100900-
NORTHERN NEW ENGLAND

CITY           SKY/WX    TMP DP  RH WIND       PRES   REMARKS
PORTLAND ME    CLEAR     17   2  51 NW7       30.17R WCI   8
BANGOR ME      MOCLDY    13   3  64 NW6       30.11R WCI   4
CONCORD NH     CLEAR     20   5  52 NW13      30.19R WCI   7
MANCHESTER NH  PTCLDY    21   4  47 W3        30.19R
NASHUA NH      PTCLDY    21   7  54 W9          N/A  WCI  11
PORTSMOUTH NH  PTCLDY    21   5  51 NW17G26   30.17R WCI   6
JAFFREY NH     PTCLDY    18   4  54 VRB5      30.15S WCI  11
KEENE NH       CLEAR     20   7  57 NW7       30.22R WCI  11
BURLINGTON VT  CLOUDY    22   8  55 NW17      30.24R WCI   8
MT. WASHINGTON ICE FOG  -11 -11 100 NW55G63     N/A  VSB 0   WCI -48
$$

NYZ052-076-100900-
EASTERN NEW YORK

CITY           SKY/WX    TMP DP  RH WIND       PRES   REMARKS
ALBANY         PTCLDY    18  11  74 N5        30.29R WCI  11
NEW YORK CITY  PTCLDY    32  16  51 NW15G22   30.32R WCI  22
$$

ANZALL-100900-
MARINE OBSERVATIONS

STATION/POSITION TIME  TEMP    WIND        PRES    VSBY  WAVE
                       AIR SEA DIR/SP/G                  HT/PER
                 (UTC) (F)     (DEG/KT/KT) (MB)    (MI)  (FT/S)
BOSTON BUOY      0750   27 49  310/ 21/ 29 1021.8R         4/ 5
BUZZARDS BAY     0700   27     330/ 19/ 22 1023.3R
NANTUCKET SOUND  NOT AVBL
MASS BAY-STELLWA NOT AVBL
ISLE OF SHOALS   0800   23     310/ 21/ 28 1021.5R
S OF BLOCK IS    0755      53                N/A           5/ 7
$$

......................KEY.........................
  SKY/WX - SKY CONDITION/PRESENT WEATHER
  TMP    - TEMPERATURE IN FAHRENHEIT
  DWPT   - DEWPOINT IN FAHRENHEIT
  RH     - RELATIVE HUMIDITY IN PERCENT
  WIND   - DIRECTION AND SPEED IN MPH
  PRES   - MEAN SEA LEVEL PRESSURE IN INCHES OF HG
  WCI    - WIND CHILL INDEX
  VSB    - VISIBILITY IN MILES
  HX     - HEAT INDEX
  TC     - TEMPERATURE IN CELSIUS
  VRB    - VARIABLE WIND DIRECTION
  N/A    - NOT AVAILABLE




USA.gov is the U.S. government's official web portal to all federal, state and local government web resources and services.